Year,Month,Day,Hour,Minute,Value (Times are PST for temperature in C)
2020,04,17,00,00,11.10
2020,04,17,00,01,11.10
2020,04,17,00,02,11.10
2020,04,17,00,03,11.10
2020,04,17,00,04,11.10
2020,04,17,00,05,11.10
2020,04,17,00,06,11.10
2020,04,17,00,07,11.10
2020,04,17,00,08,11.10
2020,04,17,00,09,11.10
2020,04,17,00,10,11.10
2020,04,17,00,11,11.10
2020,04,17,00,12,11.10
2020,04,17,00,13,11.10
2020,04,17,00,14,11.10
2020,04,17,00,15,11.00
2020,04,17,00,16,11.00
2020,04,17,00,17,11.00
2020,04,17,00,18,11.00
2020,04,17,00,19,11.00
2020,04,17,00,20,11.00
2020,04,17,00,21,11.00
2020,04,17,00,22,11.00
2020,04,17,00,23,11.00
2020,04,17,00,24,11.00
2020,04,17,00,25,11.00
2020,04,17,00,26,10.90
2020,04,17,00,27,10.90
2020,04,17,00,28,10.90
2020,04,17,00,29,10.90
2020,04,17,00,30,10.90
2020,04,17,00,31,10.90
2020,04,17,00,32,10.90
2020,04,17,00,33,10.90
2020,04,17,00,34,10.80
2020,04,17,00,35,10.80
2020,04,17,00,36,10.80
2020,04,17,00,37,10.80
2020,04,17,00,38,10.80
2020,04,17,00,39,10.80
2020,04,17,00,40,10.80
2020,04,17,00,41,10.70
2020,04,17,00,42,10.70
2020,04,17,00,43,10.70
2020,04,17,00,44,10.70
2020,04,17,00,45,10.70
2020,04,17,00,46,10.70
2020,04,17,00,47,10.60
2020,04,17,00,48,10.60
2020,04,17,00,49,10.60
2020,04,17,00,50,10.60
2020,04,17,00,51,10.60
2020,04,17,00,52,10.50
2020,04,17,00,53,10.50
2020,04,17,00,54,10.50
2020,04,17,00,55,10.50
2020,04,17,00,56,10.40
2020,04,17,00,57,10.40
2020,04,17,00,58,10.40
2020,04,17,00,59,10.40
2020,04,17,01,00,10.40
2020,04,17,01,01,10.40
2020,04,17,01,02,10.40
2020,04,17,01,03,10.30
2020,04,17,01,04,10.30
2020,04,17,01,05,10.30
2020,04,17,01,06,10.30
2020,04,17,01,07,10.30
2020,04,17,01,08,10.30
2020,04,17,01,09,10.30
2020,04,17,01,10,10.30
2020,04,17,01,11,10.30
2020,04,17,01,12,10.30
2020,04,17,01,13,10.30
2020,04,17,01,14,10.30
2020,04,17,01,15,10.30
2020,04,17,01,16,10.30
2020,04,17,01,17,10.30
2020,04,17,01,18,10.30
2020,04,17,01,19,10.40
2020,04,17,01,20,10.40
2020,04,17,01,21,10.40
2020,04,17,01,22,10.40
2020,04,17,01,23,10.40
2020,04,17,01,24,10.40
2020,04,17,01,25,10.40
2020,04,17,01,26,10.40
2020,04,17,01,27,10.40
2020,04,17,01,28,10.40
2020,04,17,01,29,10.40
2020,04,17,01,30,10.40
2020,04,17,01,31,10.40
2020,04,17,01,32,10.50
2020,04,17,01,33,10.50
2020,04,17,01,34,10.50
2020,04,17,01,35,10.50
2020,04,17,01,36,10.40
2020,04,17,01,37,10.40
2020,04,17,01,38,10.40
2020,04,17,01,39,10.40
2020,04,17,01,40,10.40
2020,04,17,01,41,10.40
2020,04,17,01,42,10.30
2020,04,17,01,43,10.30
2020,04,17,01,44,10.30
2020,04,17,01,45,10.30
2020,04,17,01,46,10.20
2020,04,17,01,47,10.20
2020,04,17,01,48,10.20
2020,04,17,01,49,10.10
2020,04,17,01,50,10.10
2020,04,17,01,51,10.10
2020,04,17,01,52,10.10
2020,04,17,01,53,10.00
2020,04,17,01,54,10.00
2020,04,17,01,55,10.00
2020,04,17,01,56,9.90
2020,04,17,01,57,9.90
2020,04,17,01,58,9.90
2020,04,17,01,59,9.90
2020,04,17,02,00,9.90
2020,04,17,02,01,9.80
2020,04,17,02,02,9.80
2020,04,17,02,03,9.80
2020,04,17,02,04,9.80
2020,04,17,02,05,9.80
2020,04,17,02,06,9.80
2020,04,17,02,07,9.80
2020,04,17,02,08,9.80
2020,04,17,02,09,9.70
2020,04,17,02,10,9.70
2020,04,17,02,11,9.70
2020,04,17,02,12,9.70
2020,04,17,02,13,9.70
2020,04,17,02,14,9.70
2020,04,17,02,15,9.70
2020,04,17,02,16,9.60
2020,04,17,02,17,9.60
2020,04,17,02,18,9.60
2020,04,17,02,19,9.60
2020,04,17,02,20,9.60
2020,04,17,02,21,9.60
2020,04,17,02,22,9.60
2020,04,17,02,23,9.50
2020,04,17,02,24,9.50
2020,04,17,02,25,9.50
2020,04,17,02,26,9.40
2020,04,17,02,27,9.40
2020,04,17,02,28,9.40
2020,04,17,02,29,9.40
2020,04,17,02,30,9.30
2020,04,17,02,31,9.30
2020,04,17,02,32,9.30
2020,04,17,02,33,9.30
2020,04,17,02,34,9.30
2020,04,17,02,35,9.30
2020,04,17,02,36,9.20
2020,04,17,02,37,9.20
2020,04,17,02,38,9.30
2020,04,17,02,39,9.30
2020,04,17,02,40,9.30
2020,04,17,02,41,9.30
2020,04,17,02,42,9.30
2020,04,17,02,43,9.30
2020,04,17,02,44,9.20
2020,04,17,02,45,9.20
2020,04,17,02,46,9.20
2020,04,17,02,47,9.20
2020,04,17,02,48,9.20
2020,04,17,02,49,9.10
2020,04,17,02,50,9.10
2020,04,17,02,51,9.10
2020,04,17,02,52,9.00
2020,04,17,02,53,9.00
2020,04,17,02,54,8.90
2020,04,17,02,55,8.90
2020,04,17,02,56,8.80
2020,04,17,02,57,8.80
2020,04,17,02,58,8.80
2020,04,17,02,59,8.70
2020,04,17,03,00,8.70
2020,04,17,03,01,8.60
2020,04,17,03,02,8.60
2020,04,17,03,03,8.50
2020,04,17,03,04,8.50
2020,04,17,03,05,8.40
2020,04,17,03,06,8.40
2020,04,17,03,07,8.30
2020,04,17,03,08,8.30
2020,04,17,03,09,8.30
2020,04,17,03,10,8.30
2020,04,17,03,11,8.20
2020,04,17,03,12,8.20
2020,04,17,03,13,8.20
2020,04,17,03,14,8.20
2020,04,17,03,15,8.10
2020,04,17,03,16,8.10
2020,04,17,03,17,8.10
2020,04,17,03,18,8.10
2020,04,17,03,19,8.00
2020,04,17,03,20,8.00
2020,04,17,03,21,8.00
2020,04,17,03,22,7.90
2020,04,17,03,23,7.90
2020,04,17,03,24,7.90
2020,04,17,03,25,7.90
2020,04,17,03,26,7.90
2020,04,17,03,27,7.90
2020,04,17,03,28,7.90
2020,04,17,03,29,7.90
2020,04,17,03,30,7.90
2020,04,17,03,31,7.90
2020,04,17,03,32,7.90
2020,04,17,03,33,7.90
2020,04,17,03,34,7.90
2020,04,17,03,35,7.90
2020,04,17,03,36,7.90
2020,04,17,03,37,7.90
2020,04,17,03,38,7.80
2020,04,17,03,39,7.80
2020,04,17,03,40,7.80
2020,04,17,03,41,7.80
2020,04,17,03,42,7.70
2020,04,17,03,43,7.70
2020,04,17,03,44,7.70
2020,04,17,03,45,7.70
2020,04,17,03,46,7.70
2020,04,17,03,47,7.70
2020,04,17,03,48,7.70
2020,04,17,03,49,7.70
2020,04,17,03,50,7.70
2020,04,17,03,51,7.70
2020,04,17,03,52,7.70
2020,04,17,03,53,7.70
2020,04,17,03,54,7.60
2020,04,17,03,55,7.60
2020,04,17,03,56,7.60
2020,04,17,03,57,7.60
2020,04,17,03,58,7.60
2020,04,17,03,59,7.50
2020,04,17,04,00,7.50
2020,04,17,04,01,7.50
2020,04,17,04,02,7.40
2020,04,17,04,03,7.40
2020,04,17,04,04,7.40
2020,04,17,04,05,7.30
2020,04,17,04,06,7.30
2020,04,17,04,07,7.30
2020,04,17,04,08,7.30
2020,04,17,04,09,7.30
2020,04,17,04,10,7.30
2020,04,17,04,11,7.30
2020,04,17,04,12,7.30
2020,04,17,04,13,7.30
2020,04,17,04,14,7.30
2020,04,17,04,15,7.30
2020,04,17,04,16,7.30
2020,04,17,04,17,7.30
2020,04,17,04,18,7.20
2020,04,17,04,19,7.20
2020,04,17,04,20,7.20
2020,04,17,04,21,7.10
2020,04,17,04,22,7.10
2020,04,17,04,23,7.10
2020,04,17,04,24,7.10
2020,04,17,04,25,7.00
2020,04,17,04,26,7.00
2020,04,17,04,27,7.00
2020,04,17,04,28,7.00
2020,04,17,04,29,6.90
2020,04,17,04,30,6.90
2020,04,17,04,31,6.90
2020,04,17,04,32,6.90
2020,04,17,04,33,6.90
2020,04,17,04,34,6.90
2020,04,17,04,35,6.80
2020,04,17,04,36,6.80
2020,04,17,04,37,6.80
2020,04,17,04,38,6.80
2020,04,17,04,39,6.70
2020,04,17,04,40,6.70
2020,04,17,04,41,6.70
2020,04,17,04,42,6.70
2020,04,17,04,43,6.70
2020,04,17,04,44,6.70
2020,04,17,04,45,6.80
2020,04,17,04,46,6.80
2020,04,17,04,47,6.80
2020,04,17,04,48,6.80
2020,04,17,04,49,6.80
2020,04,17,04,50,6.80
2020,04,17,04,51,6.90
2020,04,17,04,52,6.80
2020,04,17,04,53,6.80
2020,04,17,04,54,6.80
2020,04,17,04,55,6.80
2020,04,17,04,56,6.80
2020,04,17,04,57,6.80
2020,04,17,04,58,6.70
2020,04,17,04,59,6.70
2020,04,17,05,00,6.70
2020,04,17,05,01,6.70
2020,04,17,05,02,6.70
2020,04,17,05,03,6.70
2020,04,17,05,04,6.70
2020,04,17,05,05,6.70
2020,04,17,05,06,6.80
2020,04,17,05,07,6.80
2020,04,17,05,08,6.80
2020,04,17,05,09,6.80
2020,04,17,05,10,6.70
2020,04,17,05,11,6.70
2020,04,17,05,12,6.70
2020,04,17,05,13,6.70
2020,04,17,05,14,6.70
2020,04,17,05,15,6.70
2020,04,17,05,16,6.70
2020,04,17,05,17,6.70
2020,04,17,05,18,6.70
2020,04,17,05,19,6.70
2020,04,17,05,20,6.70
2020,04,17,05,21,6.60
2020,04,17,05,22,6.60
2020,04,17,05,23,6.60
2020,04,17,05,24,6.60
2020,04,17,05,25,6.60
2020,04,17,05,26,6.60
2020,04,17,05,27,6.60
2020,04,17,05,28,6.60
2020,04,17,05,29,6.60
2020,04,17,05,30,6.60
2020,04,17,05,31,6.70
2020,04,17,05,32,6.70
2020,04,17,05,33,6.70
2020,04,17,05,34,6.70
2020,04,17,05,35,6.70
2020,04,17,05,36,6.70
2020,04,17,05,37,6.70
2020,04,17,05,38,6.70
2020,04,17,05,39,6.80
2020,04,17,05,40,6.80
2020,04,17,05,41,6.80
2020,04,17,05,42,6.80
2020,04,17,05,43,6.80
2020,04,17,05,44,6.80
2020,04,17,05,45,6.80
2020,04,17,05,46,6.80
2020,04,17,05,47,6.80
2020,04,17,05,48,6.80
2020,04,17,05,49,6.80
2020,04,17,05,50,6.80
2020,04,17,05,51,6.80
2020,04,17,05,52,6.80
2020,04,17,05,53,6.80
2020,04,17,05,54,6.80
2020,04,17,05,55,6.70
2020,04,17,05,56,6.70
2020,04,17,05,57,6.70
2020,04,17,05,58,6.70
2020,04,17,05,59,6.70
2020,04,17,06,00,6.70
2020,04,17,06,01,6.70
2020,04,17,06,02,6.60
2020,04,17,06,03,6.60
2020,04,17,06,04,6.60
2020,04,17,06,05,6.50
2020,04,17,06,06,6.40
2020,04,17,06,07,6.40
2020,04,17,06,08,6.30
2020,04,17,06,09,6.30
2020,04,17,06,10,6.30
2020,04,17,06,11,6.30
2020,04,17,06,12,6.30
2020,04,17,06,13,6.30
2020,04,17,06,14,6.30
2020,04,17,06,15,6.30
2020,04,17,06,16,6.30
2020,04,17,06,17,6.30
2020,04,17,06,18,6.20
2020,04,17,06,19,6.20
2020,04,17,06,20,6.20
2020,04,17,06,21,6.10
2020,04,17,06,22,6.10
2020,04,17,06,23,6.00
2020,04,17,06,24,6.00
2020,04,17,06,25,5.90
2020,04,17,06,26,5.80
2020,04,17,06,27,5.80
2020,04,17,06,28,5.70
2020,04,17,06,29,5.70
2020,04,17,06,30,5.70
2020,04,17,06,31,5.60
2020,04,17,06,32,5.60
2020,04,17,06,33,5.60
2020,04,17,06,34,5.70
2020,04,17,06,35,5.70
2020,04,17,06,36,5.70
2020,04,17,06,37,5.70
2020,04,17,06,38,5.80
2020,04,17,06,39,5.80
2020,04,17,06,40,5.80
2020,04,17,06,41,5.90
2020,04,17,06,42,5.90
2020,04,17,06,43,6.00
2020,04,17,06,44,6.00
2020,04,17,06,45,6.10
2020,04,17,06,46,6.10
2020,04,17,06,47,6.10
2020,04,17,06,48,6.10
2020,04,17,06,49,6.10
2020,04,17,06,50,6.20
2020,04,17,06,51,6.20
2020,04,17,06,52,6.20
2020,04,17,06,53,6.20
2020,04,17,06,54,6.20
2020,04,17,06,55,6.20
2020,04,17,06,56,6.30
2020,04,17,06,57,6.30
2020,04,17,06,58,6.30
2020,04,17,06,59,6.30
2020,04,17,07,00,6.30
2020,04,17,07,01,6.30
2020,04,17,07,02,6.30
2020,04,17,07,03,6.30
2020,04,17,07,04,6.30
2020,04,17,07,05,6.30
2020,04,17,07,06,6.30
2020,04,17,07,07,6.30
2020,04,17,07,08,6.40
2020,04,17,07,09,6.40
2020,04,17,07,10,6.40
2020,04,17,07,11,6.40
2020,04,17,07,12,6.40
2020,04,17,07,13,6.50
2020,04,17,07,14,6.50
2020,04,17,07,15,6.50
2020,04,17,07,16,6.60
2020,04,17,07,17,6.60
2020,04,17,07,18,6.60
2020,04,17,07,19,6.70
2020,04,17,07,20,6.70
2020,04,17,07,21,6.70
2020,04,17,07,22,6.80
2020,04,17,07,23,6.80
2020,04,17,07,24,6.80
2020,04,17,07,25,6.80
2020,04,17,07,26,6.80
2020,04,17,07,27,6.80
2020,04,17,07,28,6.90
2020,04,17,07,29,6.90
2020,04,17,07,30,6.90
2020,04,17,07,31,7.00
2020,04,17,07,32,7.00
2020,04,17,07,33,7.10
2020,04,17,07,34,7.10
2020,04,17,07,35,7.20
2020,04,17,07,36,7.20
2020,04,17,07,37,7.20
2020,04,17,07,38,7.30
2020,04,17,07,39,7.30
2020,04,17,07,40,7.30
2020,04,17,07,41,7.30
2020,04,17,07,42,7.40
2020,04,17,07,43,7.40
2020,04,17,07,44,7.50
2020,04,17,07,45,7.60
2020,04,17,07,46,7.60
2020,04,17,07,47,7.70
2020,04,17,07,48,7.70
2020,04,17,07,49,7.70
2020,04,17,07,50,7.80
2020,04,17,07,51,7.80
2020,04,17,07,52,7.90
2020,04,17,07,53,7.90
2020,04,17,07,54,7.90
2020,04,17,07,55,7.90
2020,04,17,07,56,8.00
2020,04,17,07,57,8.00
2020,04,17,07,58,8.10
2020,04,17,07,59,8.10
2020,04,17,08,00,8.20
2020,04,17,08,01,8.20
2020,04,17,08,02,8.30
2020,04,17,08,03,8.40
2020,04,17,08,04,8.50
2020,04,17,08,05,8.50
2020,04,17,08,06,8.70
2020,04,17,08,07,8.70
2020,04,17,08,08,8.80
2020,04,17,08,09,8.90
2020,04,17,08,10,9.00
2020,04,17,08,11,9.00
2020,04,17,08,12,9.10
2020,04,17,08,13,9.20
2020,04,17,08,14,9.30
2020,04,17,08,15,9.30
2020,04,17,08,16,9.30
2020,04,17,08,17,9.40
2020,04,17,08,18,9.50
2020,04,17,08,19,9.60
2020,04,17,08,20,9.60
2020,04,17,08,21,9.70
2020,04,17,08,22,9.80
2020,04,17,08,23,9.80
2020,04,17,08,24,9.90
2020,04,17,08,25,10.00
2020,04,17,08,26,10.00
2020,04,17,08,27,10.10
2020,04,17,08,28,10.20
2020,04,17,08,29,10.20
2020,04,17,08,30,10.30
2020,04,17,08,31,10.30
2020,04,17,08,32,10.40
2020,04,17,08,33,10.40
2020,04,17,08,34,10.40
2020,04,17,08,35,10.50
2020,04,17,08,36,10.50
2020,04,17,08,37,10.60
2020,04,17,08,38,10.60
2020,04,17,08,39,10.70
2020,04,17,08,40,10.70
2020,04,17,08,41,10.80
2020,04,17,08,42,10.80
2020,04,17,08,43,10.90
2020,04,17,08,44,11.00
2020,04,17,08,45,11.00
2020,04,17,08,46,11.10
2020,04,17,08,47,11.10
2020,04,17,08,48,11.20
2020,04,17,08,49,11.20
2020,04,17,08,50,11.30
2020,04,17,08,51,11.40
2020,04,17,08,52,11.50
2020,04,17,08,53,11.60
2020,04,17,08,54,11.60
2020,04,17,08,55,11.70
2020,04,17,08,56,11.80
2020,04,17,08,57,11.90
2020,04,17,08,58,12.00
2020,04,17,08,59,12.10
2020,04,17,09,00,12.20
2020,04,17,09,01,12.30
2020,04,17,09,02,12.30
2020,04,17,09,03,12.40
2020,04,17,09,04,12.40
2020,04,17,09,05,12.50
2020,04,17,09,06,12.60
2020,04,17,09,07,12.60
2020,04,17,09,08,12.70
2020,04,17,09,09,12.80
2020,04,17,09,10,12.90
2020,04,17,09,11,12.90
2020,04,17,09,12,13.00
2020,04,17,09,13,13.10
2020,04,17,09,14,13.10
2020,04,17,09,15,13.20
2020,04,17,09,16,13.20
2020,04,17,09,17,13.10
2020,04,17,09,18,13.10
2020,04,17,09,19,13.10
2020,04,17,09,20,13.10
2020,04,17,09,21,13.10
2020,04,17,09,22,13.20
2020,04,17,09,23,13.20
2020,04,17,09,24,13.30
2020,04,17,09,25,13.30
2020,04,17,09,26,13.40
2020,04,17,09,27,13.40
2020,04,17,09,28,13.50
2020,04,17,09,29,13.50
2020,04,17,09,30,13.60
2020,04,17,09,31,13.60
2020,04,17,09,32,13.70
2020,04,17,09,33,13.80
2020,04,17,09,34,13.90
2020,04,17,09,35,14.00
2020,04,17,09,36,14.10
2020,04,17,09,37,14.20
2020,04,17,09,38,14.20
2020,04,17,09,39,14.30
2020,04,17,09,40,14.30
2020,04,17,09,41,14.30
2020,04,17,09,42,14.30
2020,04,17,09,43,14.30
2020,04,17,09,44,14.30
2020,04,17,09,45,14.30
2020,04,17,09,46,14.30
2020,04,17,09,47,14.30
2020,04,17,09,48,14.30
2020,04,17,09,49,14.20
2020,04,17,09,50,14.20
2020,04,17,09,51,14.20
2020,04,17,09,52,14.20
2020,04,17,09,53,14.20
2020,04,17,09,54,14.20
2020,04,17,09,55,14.20
2020,04,17,09,56,14.30
2020,04,17,09,57,14.30
2020,04,17,09,58,14.30
2020,04,17,09,59,14.40
2020,04,17,10,00,14.40
2020,04,17,10,01,14.40
2020,04,17,10,02,14.50
2020,04,17,10,03,14.50
2020,04,17,10,04,14.60
2020,04,17,10,05,14.60
2020,04,17,10,06,14.60
2020,04,17,10,07,14.60
2020,04,17,10,08,14.60
2020,04,17,10,09,14.70
2020,04,17,10,10,14.80
2020,04,17,10,11,14.80
2020,04,17,10,12,14.90
2020,04,17,10,13,14.90
2020,04,17,10,14,15.00
2020,04,17,10,15,15.10
2020,04,17,10,16,15.10
2020,04,17,10,17,15.10
2020,04,17,10,18,15.20
2020,04,17,10,19,15.20
2020,04,17,10,20,15.20
2020,04,17,10,21,15.20
2020,04,17,10,22,15.20
2020,04,17,10,23,15.20
2020,04,17,10,24,15.20
2020,04,17,10,25,15.10
2020,04,17,10,26,15.10
2020,04,17,10,27,15.10
2020,04,17,10,28,15.10
2020,04,17,10,29,15.00
2020,04,17,10,30,15.00
2020,04,17,10,31,14.90
2020,04,17,10,32,14.90
2020,04,17,10,33,14.90
2020,04,17,10,34,15.00
2020,04,17,10,35,15.10
2020,04,17,10,36,15.10
2020,04,17,10,37,15.20
2020,04,17,10,38,15.20
2020,04,17,10,39,15.20
2020,04,17,10,40,15.20
2020,04,17,10,41,15.20
2020,04,17,10,42,15.20
2020,04,17,10,43,15.20
2020,04,17,10,44,15.20
2020,04,17,10,45,15.20
2020,04,17,10,46,15.20
2020,04,17,10,47,15.10
2020,04,17,10,48,15.10
2020,04,17,10,49,15.10
2020,04,17,10,50,15.10
2020,04,17,10,51,15.10
2020,04,17,10,52,15.20
2020,04,17,10,53,15.30
2020,04,17,10,54,15.30
2020,04,17,10,55,15.30
2020,04,17,10,56,15.40
2020,04,17,10,57,15.30
2020,04,17,10,58,15.30
2020,04,17,10,59,15.20
2020,04,17,11,00,15.10
2020,04,17,11,01,15.00
2020,04,17,11,02,14.90
2020,04,17,11,03,14.80
2020,04,17,11,04,14.80
2020,04,17,11,05,14.70
2020,04,17,11,06,14.70
2020,04,17,11,07,14.80
2020,04,17,11,08,14.80
2020,04,17,11,09,14.80
2020,04,17,11,10,14.80
2020,04,17,11,11,14.80
2020,04,17,11,12,14.80
2020,04,17,11,13,14.80
2020,04,17,11,14,14.80
2020,04,17,11,15,14.80
2020,04,17,11,16,14.80
2020,04,17,11,17,14.70
2020,04,17,11,18,14.60
2020,04,17,11,19,14.50
2020,04,17,11,20,14.40
2020,04,17,11,21,14.40
2020,04,17,11,22,14.40
2020,04,17,11,23,14.30
2020,04,17,11,24,14.20
2020,04,17,11,25,14.20
2020,04,17,11,26,14.10
2020,04,17,11,27,14.10
2020,04,17,11,28,14.10
2020,04,17,11,29,14.10
2020,04,17,11,30,14.00
2020,04,17,11,31,13.90
2020,04,17,11,32,13.80
2020,04,17,11,33,13.70
2020,04,17,11,34,13.60
2020,04,17,11,35,13.50
2020,04,17,11,36,13.40
2020,04,17,11,37,13.30
2020,04,17,11,38,13.30
2020,04,17,11,39,13.30
2020,04,17,11,40,13.30
2020,04,17,11,41,13.20
2020,04,17,11,42,13.20
2020,04,17,11,43,13.10
2020,04,17,11,44,12.90
2020,04,17,11,45,12.80
2020,04,17,11,46,12.80
2020,04,17,11,47,12.80
2020,04,17,11,48,12.80
2020,04,17,11,49,12.80
2020,04,17,11,50,12.80
2020,04,17,11,51,12.90
2020,04,17,11,52,12.90
2020,04,17,11,53,13.00
2020,04,17,11,54,13.00
2020,04,17,11,55,13.10
2020,04,17,11,56,13.10
2020,04,17,11,57,13.00
2020,04,17,11,58,12.90
2020,04,17,11,59,12.90
2020,04,17,12,00,12.90
2020,04,17,12,01,12.90
2020,04,17,12,02,12.90
2020,04,17,12,03,12.90
2020,04,17,12,04,12.90
2020,04,17,12,05,12.90
2020,04,17,12,06,12.90
2020,04,17,12,07,12.80
2020,04,17,12,08,12.80
2020,04,17,12,09,12.80
2020,04,17,12,10,12.70
2020,04,17,12,11,12.70
2020,04,17,12,12,12.70
2020,04,17,12,13,12.70
2020,04,17,12,14,12.80
2020,04,17,12,15,12.80
2020,04,17,12,16,12.80
2020,04,17,12,17,12.80
2020,04,17,12,18,12.90
2020,04,17,12,19,12.90
2020,04,17,12,20,13.00
2020,04,17,12,21,13.00
2020,04,17,12,22,13.10
2020,04,17,12,23,13.10
2020,04,17,12,24,13.00
2020,04,17,12,25,13.00
2020,04,17,12,26,12.90
2020,04,17,12,27,12.90
2020,04,17,12,28,12.90
2020,04,17,12,29,12.90
2020,04,17,12,30,12.90
2020,04,17,12,31,13.00
2020,04,17,12,32,13.00
2020,04,17,12,33,13.10
2020,04,17,12,34,13.10
2020,04,17,12,35,13.20
2020,04,17,12,36,13.20
2020,04,17,12,37,13.30
2020,04,17,12,38,13.30
2020,04,17,12,39,13.40
2020,04,17,12,40,13.50
2020,04,17,12,41,13.60
2020,04,17,12,42,13.60
2020,04,17,12,43,13.70
2020,04,17,12,44,13.70
2020,04,17,12,45,13.70
2020,04,17,12,46,13.80
2020,04,17,12,47,13.80
2020,04,17,12,48,13.90
2020,04,17,12,49,13.90
2020,04,17,12,50,14.00
2020,04,17,12,51,14.10
2020,04,17,12,52,14.10
2020,04,17,12,53,14.20
2020,04,17,12,54,14.20
2020,04,17,12,55,14.30
2020,04,17,12,56,14.30
2020,04,17,12,57,14.30
2020,04,17,12,58,14.30
2020,04,17,12,59,14.30
2020,04,17,13,00,14.40
2020,04,17,13,01,14.40
2020,04,17,13,02,14.40
2020,04,17,13,03,14.40
2020,04,17,13,04,14.40
2020,04,17,13,05,14.40
2020,04,17,13,06,14.40
2020,04,17,13,07,14.40
2020,04,17,13,08,14.30
2020,04,17,13,09,14.30
2020,04,17,13,10,14.30
2020,04,17,13,11,14.30
2020,04,17,13,12,14.30
2020,04,17,13,13,14.30
2020,04,17,13,14,14.30
2020,04,17,13,15,14.40
2020,04,17,13,16,14.40
2020,04,17,13,17,14.50
2020,04,17,13,18,14.60
2020,04,17,13,19,14.70
2020,04,17,13,20,14.80
2020,04,17,13,21,14.90
2020,04,17,13,22,14.90
2020,04,17,13,23,14.90
2020,04,17,13,24,14.90
2020,04,17,13,25,14.90
2020,04,17,13,26,15.00
2020,04,17,13,27,15.10
2020,04,17,13,28,15.20
2020,04,17,13,29,15.20
2020,04,17,13,30,15.20
2020,04,17,13,31,15.30
2020,04,17,13,32,15.30
2020,04,17,13,33,15.40
2020,04,17,13,34,15.60
2020,04,17,13,35,15.70
2020,04,17,13,36,15.80
2020,04,17,13,37,15.90
2020,04,17,13,38,16.10
2020,04,17,13,39,16.20
2020,04,17,13,40,16.30
2020,04,17,13,41,16.40
2020,04,17,13,42,16.40
2020,04,17,13,43,16.40
2020,04,17,13,44,16.50
2020,04,17,13,45,16.60
2020,04,17,13,46,16.70
2020,04,17,13,47,16.80
2020,04,17,13,48,16.90
2020,04,17,13,49,16.90
2020,04,17,13,50,17.00
2020,04,17,13,51,17.10
2020,04,17,13,52,17.20
2020,04,17,13,53,17.30
2020,04,17,13,54,17.30
2020,04,17,13,55,17.40
2020,04,17,13,56,17.40
2020,04,17,13,57,17.40
2020,04,17,13,58,17.40
2020,04,17,13,59,17.40
2020,04,17,14,00,17.30
2020,04,17,14,01,17.30
2020,04,17,14,02,17.20
2020,04,17,14,03,17.10
2020,04,17,14,04,17.00
2020,04,17,14,05,16.90
2020,04,17,14,06,16.80
2020,04,17,14,07,16.70
2020,04,17,14,08,16.60
2020,04,17,14,09,16.50
2020,04,17,14,10,16.30
2020,04,17,14,11,16.20
2020,04,17,14,12,16.10
2020,04,17,14,13,15.90
2020,04,17,14,14,15.80
2020,04,17,14,15,15.80
2020,04,17,14,16,15.70
2020,04,17,14,17,15.60
2020,04,17,14,18,15.60
2020,04,17,14,19,15.60
2020,04,17,14,20,15.60
2020,04,17,14,21,15.60
2020,04,17,14,22,15.60
2020,04,17,14,23,15.50
2020,04,17,14,24,15.40
2020,04,17,14,25,15.40
2020,04,17,14,26,15.30
2020,04,17,14,27,15.30
2020,04,17,14,28,15.20
2020,04,17,14,29,15.20
2020,04,17,14,30,15.10
2020,04,17,14,31,15.10
2020,04,17,14,32,15.10
2020,04,17,14,33,15.10
2020,04,17,14,34,15.10
2020,04,17,14,35,15.10
2020,04,17,14,36,15.20
2020,04,17,14,37,15.30
2020,04,17,14,38,15.30
2020,04,17,14,39,15.30
2020,04,17,14,40,15.30
2020,04,17,14,41,15.30
2020,04,17,14,42,15.30
2020,04,17,14,43,15.30
2020,04,17,14,44,15.20
2020,04,17,14,45,15.20
2020,04,17,14,46,15.20
2020,04,17,14,47,15.20
2020,04,17,14,48,15.30
2020,04,17,14,49,15.30
2020,04,17,14,50,15.20
2020,04,17,14,51,15.20
2020,04,17,14,52,15.10
2020,04,17,14,53,14.90
2020,04,17,14,54,14.80
2020,04,17,14,55,14.70
2020,04,17,14,56,14.70
2020,04,17,14,57,14.70
2020,04,17,14,58,14.60
2020,04,17,14,59,14.60
2020,04,17,15,00,14.60
2020,04,17,15,01,14.60
2020,04,17,15,02,14.70
2020,04,17,15,03,14.70
2020,04,17,15,04,14.80
2020,04,17,15,05,14.90
2020,04,17,15,06,14.90
2020,04,17,15,07,15.00
2020,04,17,15,08,15.10
2020,04,17,15,09,15.10
2020,04,17,15,10,15.10
2020,04,17,15,11,15.20
2020,04,17,15,12,15.20
2020,04,17,15,13,15.20
2020,04,17,15,14,15.20
2020,04,17,15,15,15.10
2020,04,17,15,16,15.10
2020,04,17,15,17,15.10
2020,04,17,15,18,15.10
2020,04,17,15,19,15.10
2020,04,17,15,20,15.20
2020,04,17,15,21,15.30
2020,04,17,15,22,15.40
2020,04,17,15,23,15.50
2020,04,17,15,24,15.50
2020,04,17,15,25,15.60
2020,04,17,15,26,15.70
2020,04,17,15,27,15.70
2020,04,17,15,28,15.80
2020,04,17,15,29,15.80
2020,04,17,15,30,15.90
2020,04,17,15,31,16.00
2020,04,17,15,32,16.10
2020,04,17,15,33,16.10
2020,04,17,15,34,16.20
2020,04,17,15,35,16.10
2020,04,17,15,36,16.10
2020,04,17,15,37,16.10
2020,04,17,15,38,16.10
2020,04,17,15,39,16.20
2020,04,17,15,40,16.20
2020,04,17,15,41,16.20
2020,04,17,15,42,16.20
2020,04,17,15,43,16.30
2020,04,17,15,44,16.30
2020,04,17,15,45,16.30
2020,04,17,15,46,16.40
2020,04,17,15,47,16.40
2020,04,17,15,48,16.50
2020,04,17,15,49,16.60
2020,04,17,15,50,16.70
2020,04,17,15,51,16.80
2020,04,17,15,52,16.90
2020,04,17,15,53,17.00
2020,04,17,15,54,17.00
2020,04,17,15,55,17.10
2020,04,17,15,56,17.10
2020,04,17,15,57,17.10
2020,04,17,15,58,17.00
2020,04,17,15,59,16.90
2020,04,17,16,00,16.90
2020,04,17,16,01,16.80
2020,04,17,16,02,16.80
2020,04,17,16,03,16.70
2020,04,17,16,04,16.70
2020,04,17,16,05,16.60
2020,04,17,16,06,16.60
2020,04,17,16,07,16.50
2020,04,17,16,08,16.40
2020,04,17,16,09,16.30
2020,04,17,16,10,16.20
2020,04,17,16,11,16.20
2020,04,17,16,12,16.10
2020,04,17,16,13,16.10
2020,04,17,16,14,16.10
2020,04,17,16,15,16.10
2020,04,17,16,16,16.10
2020,04,17,16,17,16.20
2020,04,17,16,18,16.20
2020,04,17,16,19,16.20
2020,04,17,16,20,16.30
2020,04,17,16,21,16.30
2020,04,17,16,22,16.30
2020,04,17,16,23,16.30
2020,04,17,16,24,16.30
2020,04,17,16,25,16.30
2020,04,17,16,26,16.30
2020,04,17,16,27,16.30
2020,04,17,16,28,16.30
2020,04,17,16,29,16.30
2020,04,17,16,30,16.30
2020,04,17,16,31,16.30
2020,04,17,16,32,16.30
2020,04,17,16,33,16.30
2020,04,17,16,34,16.30
2020,04,17,16,35,16.30
2020,04,17,16,36,16.20
2020,04,17,16,37,16.20
2020,04,17,16,38,16.20
2020,04,17,16,39,16.20
2020,04,17,16,40,16.20
2020,04,17,16,41,16.20
2020,04,17,16,42,16.20
2020,04,17,16,43,16.10
2020,04,17,16,44,16.10
2020,04,17,16,45,16.10
2020,04,17,16,46,16.10
2020,04,17,16,47,16.10
2020,04,17,16,48,16.10
2020,04,17,16,49,16.10
2020,04,17,16,50,16.10
2020,04,17,16,51,16.10
2020,04,17,16,52,16.10
2020,04,17,16,53,16.10
2020,04,17,16,54,16.10
2020,04,17,16,55,16.10
2020,04,17,16,56,16.00
2020,04,17,16,57,15.90
2020,04,17,16,58,15.90
2020,04,17,16,59,15.80
2020,04,17,17,00,15.80
2020,04,17,17,01,15.70
2020,04,17,17,02,15.60
2020,04,17,17,03,15.60
2020,04,17,17,04,15.60
2020,04,17,17,05,15.60
2020,04,17,17,06,15.60
2020,04,17,17,07,15.70
2020,04,17,17,08,15.70
2020,04,17,17,09,15.60
2020,04,17,17,10,15.60
2020,04,17,17,11,15.60
2020,04,17,17,12,15.60
2020,04,17,17,13,15.50
2020,04,17,17,14,15.50
2020,04,17,17,15,15.40
2020,04,17,17,16,15.40
2020,04,17,17,17,15.40
2020,04,17,17,18,15.40
2020,04,17,17,19,15.40
2020,04,17,17,20,15.40
2020,04,17,17,21,15.40
2020,04,17,17,22,15.40
2020,04,17,17,23,15.40
2020,04,17,17,24,15.40
2020,04,17,17,25,15.40
2020,04,17,17,26,15.40
2020,04,17,17,27,15.40
2020,04,17,17,28,15.40
2020,04,17,17,29,15.40
2020,04,17,17,30,15.40
2020,04,17,17,31,15.50
2020,04,17,17,32,15.50
2020,04,17,17,33,15.50
2020,04,17,17,34,15.60
2020,04,17,17,35,15.60
2020,04,17,17,36,15.60